Simultaneous Nadir Overpasses (SNOs) Predictions

Prediction of SNOs between AQUA and NOAA-19 Satellite Orbit:

Table of predicted SNOs for the next 14.0 days since TLE Epoch: 3/18/2023
Index Date (AQUA) Time (AQUA) Lat,Lon (AQUA) SZA (AQUA ) Date (NOAA-19) Time (NOAA-19) Lat,Lon (NOAA-19) SZA (NOAA-19 ) Distance(km) Time Diff (sec)
1 03/18/2023 19:05:40 -76.67, 62.43 102.23 03/18/2023 19:04:52 -76.69, 62.35 102.19 3.28 48
2 03/18/2023 19:55:07 76.73,-130.13 77.83 03/18/2023 19:55:53 76.75,-130.18 77.84 2.70 46
3 03/21/2023 00:37:49 76.71, 159.26 76.94 03/21/2023 00:37:31 76.72, 159.36 76.94 2.48 18
4 03/21/2023 01:27:14 -76.74, -33.19 103.05 03/21/2023 01:28:28 -76.74, -33.28 103.06 2.18 74
5 03/23/2023 05:20:25 76.47, 89.46 75.78 03/23/2023 05:19:16 76.38, 87.64 75.81 48.68 69
6 03/23/2023 06:09:55 -76.73,-103.80 103.94 03/23/2023 06:10:06 -76.73,-103.67 103.95 3.35 11
7 03/25/2023 10:52:34 -76.68,-174.26 104.87 03/25/2023 10:51:45 -76.66,-174.28 104.87 1.68 49
8 03/25/2023 11:42:00 76.70, -6.70 75.15 03/25/2023 11:42:44 76.73, -6.75 75.17 3.31 44
9 03/27/2023 16:24:38 76.66, -77.19 74.23 03/27/2023 16:24:22 76.68, -77.31 74.25 3.61 16
10 03/27/2023 17:14:05 -76.77, 90.05 105.66 03/27/2023 17:15:18 -76.82, 90.53 105.66 13.13 73
11 03/29/2023 21:07:14 76.57,-147.53 73.26 03/29/2023 21:06:02 76.53,-148.26 73.27 19.80 72
12 03/29/2023 21:56:41 -76.68, 19.73 106.63 03/29/2023 21:56:58 -76.69, 19.68 106.62 1.78 17
13 04/01/2023 02:39:17 -76.65, -50.77 107.53 04/01/2023 02:38:36 -76.65, -50.84 107.52 1.89 41



Historial Predications of SNOs between AQUA and NOAA-19
